Find Flock 4q-31

NORAD ID: 58285 Int'l Des: 2023-174 Owner: PLAN Country: US Constellation: planet operational
LEOCIRCULARRETROGRADESSO

リアルタイム位置

3D地球を読み込み中...

Flock 4q-31について

説明を読み込み中...

次回通過

Passes for default location (London). Set your location on the main map for personalized predictions.

高度履歴

Loading altitude history...

軌道要素

1 58285U 23174AF 26107.18989672 .00021432 00000-0 34003-3 0 9996
2 58285 97.3918 197.2883 0005044 18.5388 341.6048 15.53381799136301
Epoch: Apr 17, 2026 • Age: 11 hours

現在のステータス

高度 417.9 km
速度 7.67 km/s
衛星直下点 74.87°N, 87.86°E
打ち上げ日 Nov 11, 2023
運用期間 2.4 years
タイプ earth observation

技術仕様

分類 Payload
質量 5.70 kg
乾燥質量 5.70 kg
総質量 5.70 kg
長さ 0.30 m
直径 0.10 m
スパン 0.30 m
形状 Box+2 pan
製造者 PLAN
バスタイプ Cubesat 3U
フェーズステータス In Orbit
所有者/国 PLAN/US

Most Searched